CAPE
nan nan nan nan nan nan nan nan nan nan nan nan nan nan nan nan nan nan nan nan nan nan nan nan nan nan nan nan nan nan nan 0 2 2 5 7 9 9 13 17 17 23 29 32 32 37 43 47 47 54 65 82 93 93 117 130 130 140 150 155 155 165 168 171 171 193 208 241 259 259 281 289 298 298 318 318 318 318 293 281 281 253 233 236 236 238
nan nan nan nan nan nan nan nan nan nan nan nan nan nan nan nan nan nan nan nan nan nan nan nan nan nan nan nan 0 0 0 1 2 2 4 6 9 9 13 19 19 23 30 34 34 39 46 53 53 55 61 75 84 84 100 115 115 131 135 133 133 143 140 142 142 156 173 206 219 219 240 261 273 273 304 313 311 311 293 266 266 249 234 227 227 243
nan nan nan nan nan nan nan nan nan nan nan nan nan nan nan nan nan nan nan nan nan nan nan nan nan nan nan nan 1 1 2 5 7 7 6 7 9 9 13 18 18 23 28 40 40 38 49 50 50 56 58 66 70 70 85 98 98 103 113 104 104 114 110 106 106 114 128 154 172 172 188 195 206 206 220 233 222 222 219 206 206 217 219 223 223 247
0 nan nan nan nan nan nan nan nan nan 0 0 1 1 1 1 1 1 0 nan nan nan 0 nan nan nan nan 0 2 2 3 9 12 12 13 11 13 13 16 19 19 27 33 39 39 38 44 46 46 48 50 51 60 60 65 77 77 83 87 80 80 89 82 85 85 89 84 102 113 113 124 136 137 137 149 142 144 144 153 179 179 210 223 229 229 254
1 nan 0 0 0 0 0 0 1 1 4 3 3 3 3 4 3 3 3 2 2 1 1 1 1 nan 0 0 2 2 7 14 19 19 23 22 20 20 22 24 24 27 31 37 37 42 45 47 47 43 44 47 50 50 55 61 61 68 73 77 77 78 79 80 80 82 77 84 84 84 96 101 107 107 110 116 125 125 133 149 149 193 207 240 240 253
0 1 2 4 4 3 2 3 4 4 6 7 7 7 7 10 5 5 4 3 3 3 3 2 2 1 1 1 6 6 13 20 26 26 29 33 32 32 31 31 31 34 37 37 37 47 46 43 43 43 43 46 44 44 56 63 63 69 80 77 77 78 86 87 87 88 89 89 90 90 96 103 106 106 115 125 126 126 122 145 145 188 214 232 232 252
2 4 6 8 8 7 6 6 9 9 6 8 10 10 13 16 14 14 10 5 5 4 4 3 3 3 2 3 9 9 15 20 27 27 34 36 41 41 37 37 37 39 42 47 47 51 53 55 55 55 56 59 58 58 69 81 81 87 91 87 87 90 92 100 100 95 97 97 97 97 99 110 118 118 128 124 119 119 129 136 136 189 223 244 244 250
14 19 13 12 12 9 7 7 10 10 14 13 14 14 14 13 18 18 23 24 24 20 10 5 5 5 2 1 3 3 7 7 8 8 19 32 42 42 40 47 47 49 58 62 62 65 74 73 73 73 73 74 69 69 80 85 85 79 76 64 64 62 64 67 67 76 78 74 77 77 74 77 80 80 83 81 90 90 93 108 108 121 154 172 172 203
24 26 17 18 18 12 7 7 15 15 20 17 16 16 15 15 14 14 14 10 10 13 10 8 8 8 7 8 6 6 13 19 11 11 17 13 15 15 30 47 47 55 58 62 62 73 68 68 68 74 73 73 74 74 78 73 73 68 56 48 48 49 47 50 50 52 55 57 59 59 57 56 58 58 61 64 67 67 66 73 73 81 94 121 121 152
26 20 14 9 9 9 5 13 20 20 29 24 24 24 23 23 18 18 16 12 12 11 12 16 16 14 13 18 14 14 11 19 73 73 87 48 66 66 43 34 34 29 59 63 63 66 60 60 60 69 66 65 66 66 59 52 52 38 41 33 33 37 34 37 37 39 42 39 37 37 40 43 42 42 45 48 46 46 44 42 42 50 62 80 80 98
28 16 12 9 9 8 10 22 30 30 39 36 48 48 42 35 27 27 18 22 22 25 18 28 28 25 16 16 13 13 9 4 27 27 69 59 55 55 49 41 41 42 53 60 60 58 50 47 47 45 42 40 32 32 32 25 25 18 15 18 18 18 22 25 25 28 30 29 31 31 29 33 36 36 35 33 36 36 30 27 27 30 37 49 49 67
18 14 12 8 8 17 40 49 51 51 55 62 58 58 55 41 45 45 37 40 40 56 41 31 31 33 34 17 19 19 15 5 20 20 25 33 46 46 37 32 32 35 30 32 32 39 38 36 36 27 19 16 15 15 5 4 4 2 3 5 5 10 12 18 18 22 26 27 27 27 27 30 29 29 27 27 31 31 25 23 23 20 27 30 30 42
17 14 15 30 30 47 72 75 67 67 60 69 63 63 35 35 61 61 53 70 70 131 73 33 33 25 31 25 36 36 41 44 29 29 9 12 29 29 25 22 22 18 16 7 7 10 22 29 29 21 19 13 12 12 5 3 3 1 3 5 5 7 9 13 13 16 19 23 23 23 26 25 27 27 27 26 29 29 24 22 22 20 19 21 21 28
32 36 35 41 41 44 55 57 44 44 33 27 19 19 20 50 72 72 70 111 111 159 60 14 14 6 12 26 71 71 74 66 44 44 24 35 34 34 28 21 21 21 11 3 3 nan 2 2 2 2 14 18 19 19 11 4 4 1 2 4 4 6 9 12 12 15 16 20 19 19 20 24 28 28 27 26 25 25 24 25 25 23 22 20 20 23
43 42 34 27 27 23 26 24 17 17 13 14 20 20 52 75 87 87 102 149 149 101 42 36 36 14 23 34 88 88 82 73 62 62 68 66 55 55 30 20 20 18 9 5 5 nan 1 1 1 nan 1 9 15 15 13 4 4 nan 0 1 1 3 7 10 10 14 16 17 20 20 21 25 27 27 27 26 25 25 24 24 24 25 25 27 27 26
39 42 47 38 38 34 28 30 27 27 34 43 64 64 86 88 106 106 135 152 152 61 42 31 31 16 26 62 77 77 73 94 106 106 109 73 59 59 37 17 17 15 11 9 9 5 2 1 1 2 3 14 15 15 10 7 7 1 0 1 1 3 6 12 12 15 16 20 24 24 24 25 26 26 23 24 24 24 25 30 30 31 33 32 32 35
66 68 57 49 49 69 75 105 92 92 81 91 104 104 127 119 124 124 113 129 129 79 58 47 47 41 28 30 74 74 91 123 161 161 117 36 26 26 38 23 23 15 14 11 11 10 5 1 1 4 16 35 30 30 25 13 13 4 1 2 2 4 7 13 13 16 19 24 27 27 26 26 26 26 22 25 24 24 27 29 29 31 39 40 40 45
51 45 38 44 44 66 92 105 105 105 108 110 122 122 119 129 153 153 182 158 158 88 78 51 51 36 46 98 133 133 154 118 97 97 66 8 10 10 28 24 24 16 12 11 11 12 13 15 15 18 29 58 55 55 43 30 30 28 16 7 7 5 10 14 14 18 23 24 26 26 28 28 29 29 27 25 26 26 28 28 28 35 41 46 46 52
23 24 20 33 33 45 64 60 50 50 56 70 72 72 91 114 139 139 160 139 139 74 51 50 50 67 116 141 225 225 155 118 44 44 16 9 6 6 5 6 6 5 4 5 5 14 31 59 59 78 65 81 70 70 62 57 57 41 36 21 21 13 9 14 14 19 25 26 31 31 32 31 29 29 28 25 25 25 28 32 32 34 41 45 45 51
28 38 49 43 43 44 39 40 40 40 35 46 69 69 89 101 147 147 212 157 157 83 72 90 90 104 99 52 46 46 49 40 23 23 17 11 5 5 0 0 0 nan nan 0 0 5 22 80 80 101 95 99 88 88 86 68 68 59 42 37 37 28 15 16 16 20 24 28 27 27 33 29 30 30 26 23 26 26 29 32 32 35 42 44 44 47
52 67 79 58 58 42 33 38 38 38 43 57 60 60 72 88 135 135 150 144 144 98 79 54 54 61 70 64 45 45 15 13 20 20 17 13 5 5 0 nan nan nan nan nan nan nan 19 60 60 66 87 105 99 99 88 78 78 64 55 45 45 31 23 18 18 24 26 27 29 29 30 29 28 28 26 23 25 25 29 30 30 36 41 42 42 43
48 42 48 54 54 46 34 39 56 56 69 77 54 54 59 67 87 87 117 75 75 40 44 50 50 60 45 22 2 2 0 2 12 12 22 16 7 7 2 0 0 0 nan nan nan nan 12 27 27 28 57 92 102 102 87 71 71 71 63 52 52 48 34 26 26 27 34 34 37 37 34 30 27 27 23 23 26 26 29 32 32 34 41 43 43 44
41 26 31 35 35 32 34 49 86 86 113 80 77 77 49 33 16 16 6 5 5 27 42 64 64 50 27 7 1 1 0 1 10 10 16 15 10 10 6 5 5 5 3 2 2 1 2 1 1 1 19 70 80 80 80 67 67 66 74 62 62 57 44 37 37 37 42 42 43 43 37 29 23 23 23 22 23 23 27 31 31 36 41 44 44 45
50 28 29 24 24 34 67 112 132 132 123 101 66 66 31 8 4 4 9 35 35 73 48 68 68 56 30 18 10 10 9 13 25 25 20 12 11 11 9 10 10 13 12 8 8 5 4 0 0 0 5 49 63 63 67 60 60 62 61 72 72 65 50 52 52 47 52 53 54 54 45 30 19 19 20 21 21 21 27 30 30 35 39 44 44 42
42 37 31 31 31 91 89 101 105 105 58 38 45 45 46 34 84 84 88 55 55 54 80 89 89 45 26 30 16 16 19 28 40 40 24 14 12 12 13 11 11 14 11 7 7 4 2 2 2 5 23 49 62 62 53 60 60 66 64 68 68 56 54 57 57 62 72 72 73 73 57 26 23 23 17 18 18 18 24 27 27 30 36 39 39 41
59 66 78 100 100 173 202 207 190 190 121 46 27 27 24 55 83 83 36 29 29 43 61 42 42 22 14 9 8 8 13 31 36 36 24 19 18 18 15 8 8 9 9 7 7 7 9 16 16 25 30 31 43 43 43 47 47 60 62 65 65 60 52 64 64 72 73 83 83 83 59 43 21 21 16 13 16 16 20 23 23 28 33 35 35 36
122 136 186 205 205 229 242 263 293 293 294 194 85 85 35 26 60 60 29 31 31 37 20 16 16 13 9 5 1 1 4 11 17 17 22 17 14 14 13 9 9 10 11 9 9 13 26 28 28 20 13 12 16 16 25 34 34 55 72 68 68 67 68 65 65 74 84 86 77 77 67 57 34 34 16 13 15 15 18 22 22 26 27 30 30 36
124 150 173 206 206 214 223 251 253 253 208 131 65 65 25 7 10 10 5 11 11 23 14 11 11 8 5 1 0 0 1 5 7 7 16 17 13 13 9 11 11 13 21 32 32 48 49 26 26 15 8 5 4 4 15 39 39 59 76 73 73 69 63 68 68 77 79 80 71 71 68 50 41 41 26 14 16 16 22 20 20 23 24 26 26 29
117 130 151 161 161 161 166 170 138 138 82 40 22 22 14 7 7 7 7 13 13 16 16 13 13 7 4 0 1 1 1 2 5 5 10 16 18 18 16 26 26 36 34 28 28 21 17 11 11 8 5 7 10 10 27 56 56 67 74 71 71 72 65 60 60 73 75 68 66 66 55 51 36 36 29 24 21 21 19 20 20 20 23 27 27 29
102 114 117 105 105 91 106 76 42 42 27 22 17 17 9 8 7 7 7 13 13 14 14 13 13 7 4 2 1 1 1 2 8 8 26 34 26 26 23 25 25 20 14 10 10 11 9 8 8 6 8 21 28 28 36 45 45 38 43 57 57 52 58 54 54 48 47 37 40 40 38 41 40 40 40 34 29 29 29 24 24 22 29 29 29 31
94 96 74 57 57 50 43 15 4 4 9 12 15 15 14 5 5 5 8 12 12 12 11 9 9 5 3 3 2 2 1 1 11 11 23 31 23 23 20 17 17 14 16 13 13 13 12 11 11 17 27 41 30 30 9 3 3 7 13 32 32 45 49 49 49 49 40 36 29 29 28 32 36 36 41 52 46 46 40 31 31 33 29 27 27 25
68 41 37 26 26 24 25 20 8 8 2 1 4 4 12 7 5 5 5 6 6 8 7 6 6 5 4 5 4 4 2 3 8 8 15 14 13 13 19 25 25 33 36 51 51 59 38 26 26 34 29 19 12 12 9 8 8 8 13 19 19 24 43 50 50 55 51 56 48 48 47 45 48 48 50 56 59 59 52 45 45 43 37 29 29 25
50 37 35 26 26 29 34 30 24 24 16 10 14 14 15 10 11 11 8 7 7 8 7 6 6 5 5 6 4 4 4 4 11 11 22 22 26 26 25 21 21 22 22 22 22 16 17 24 24 19 16 20 22 22 19 16 16 15 13 16 16 20 31 35 35 38 42 53 58 58 60 57 54 54 59 61 56 56 54 51 51 48 40 29 29 22
32 42 38 31 31 28 36 44 47 47 48 32 28 28 22 16 13 13 12 9 9 8 8 8 8 8 8 8 7 7 5 4 12 12 19 21 21 21 20 17 17 11 11 9 9 11 13 13 13 15 14 22 23 23 20 16 16 16 17 21 21 27 29 28 28 29 36 57 65 65 70 72 72 72 62 60 58 58 56 51 51 45 37 32 32 22
22 26 26 32 32 36 41 45 46 46 48 48 45 45 29 19 13 13 13 10 10 10 7 9 9 13 14 12 12 12 7 4 11 11 16 17 17 17 13 9 9 9 12 14 14 13 13 12 12 20 25 21 16 16 15 16 16 14 16 21 21 28 32 32 32 32 38 46 55 55 60 79 76 76 62 53 51 51 50 48 48 40 32 23 23 16
13 23 31 39 39 39 33 35 33 33 33 24 19 19 16 13 13 13 12 12 12 14 14 16 16 16 17 16 19 19 15 7 13 13 16 14 14 14 14 12 12 13 15 15 15 13 14 13 13 19 21 12 6 6 7 11 11 14 15 17 17 21 24 33 33 46 41 38 39 39 40 57 53 53 47 40 37 37 34 31 31 27 20 12 12 6
23 27 39 47 47 37 22 25 29 29 16 9 11 11 11 12 13 13 12 15 15 15 17 22 22 19 25 17 17 17 13 6 9 9 17 16 17 17 17 19 19 25 18 17 17 17 17 15 15 11 8 6 3 3 4 6 6 9 12 18 18 19 21 28 28 40 38 37 38 38 38 45 38 38 34 37 24 24 23 20 20 17 13 5 5 4
33 35 43 45 45 26 21 23 16 16 9 7 10 10 11 12 17 17 19 20 20 21 19 17 17 20 18 26 22 22 16 11 15 15 22 17 17 17 18 23 23 28 26 20 20 18 18 17 17 9 5 3 4 4 7 5 5 7 12 18 18 20 24 30 30 35 37 43 44 44 41 38 35 35 37 37 25 25 22 26 26 28 18 6 6 0
43 45 41 31 31 26 23 12 6 6 5 6 9 9 10 17 22 22 25 22 22 22 21 20 20 19 15 15 23 23 22 17 20 20 24 18 15 15 17 17 17 26 30 27 27 19 16 16 16 10 6 3 4 4 4 4 4 5 11 17 17 23 29 39 39 49 52 52 56 56 47 41 37 37 44 47 37 37 22 35 35 37 33 21 21 8
45 40 33 27 27 18 19 10 6 6 5 7 13 13 16 17 22 22 25 20 20 19 21 18 18 13 11 13 17 17 17 18 25 25 22 18 16 16 10 12 12 14 21 23 23 21 19 18 18 18 16 6 5 5 4 4 4 7 15 13 13 13 23 25 25 40 59 58 60 60 48 37 37 37 40 42 34 34 27 35 35 43 33 19 19 10
44 37 24 19 19 18 9 5 4 4 6 9 19 19 20 19 18 18 16 18 18 17 14 12 12 11 9 10 13 13 12 13 24 24 28 30 28 28 16 13 13 9 9 15 15 16 20 21 21 17 15 10 11 11 10 5 5 12 18 12 12 10 11 12 12 14 35 52 55 55 41 35 31 31 34 35 20 20 16 17 17 37 22 10 10 10
58 48 30 15 15 10 4 4 7 7 12 16 18 18 19 19 16 16 16 16 16 11 10 12 12 14 15 9 10 10 12 15 26 26 36 34 30 30 26 18 18 12 10 11 11 11 17 21 21 19 16 10 10 10 8 7 7 10 13 10 10 13 11 10 10 8 29 35 28 28 32 19 14 14 21 27 17 17 2 1 1 6 8 9 9 13
67 49 23 12 12 5 5 6 10 10 17 19 19 19 15 15 19 19 19 14 14 12 13 14 14 17 14 9 8 8 13 20 21 21 26 28 32 32 29 23 23 19 15 13 13 15 18 16 16 14 16 15 13 13 15 13 13 14 12 13 13 11 5 6 6 7 15 18 10 10 10 8 5 5 8 8 3 3 nan nan nan 0 0 4 4 13
50 25 13 7 7 5 5 8 12 12 17 17 12 12 13 16 21 21 18 15 15 20 24 25 25 17 9 5 4 4 6 13 16 16 17 21 24 24 24 19 19 25 17 10 10 11 14 13 13 12 13 15 16 16 18 16 16 11 9 10 10 8 7 6 6 6 15 16 8 8 8 6 4 4 3 2 1 1 nan nan nan nan nan 0 0 4
22 13 8 8 8 5 7 12 15 15 15 13 9 9 14 19 22 22 20 21 21 30 27 22 22 11 5 3 3 3 4 5 10 10 11 16 23 23 19 21 21 26 17 13 13 8 8 8 8 9 12 15 16 16 17 12 12 7 8 10 10 9 7 8 8 9 18 17 9 9 8 3 1 1 1 1 1 1 nan nan nan nan nan nan nan 0
18 16 11 7 7 6 10 11 12 12 11 10 13 13 16 22 23 23 28 32 32 35 25 15 15 7 5 5 4 4 4 5 7 7 10 19 22 22 23 30 30 27 18 16 16 12 7 5 5 4 7 12 13 13 12 8 8 5 5 7 7 7 9 12 12 16 20 8 5 5 1 0 1 1 1 2 2 2 0 nan nan nan nan nan nan 0
19 15 10 8 8 7 9 9 8 8 12 12 15 15 18 21 22 22 28 38 38 26 16 9 9 6 5 6 6 6 6 5 7 7 12 16 23 23 23 21 21 22 19 15 15 13 6 4 4 5 3 10 9 9 8 8 8 7 7 6 6 8 12 16 16 25 19 1 2 2 0 0 1 1 2 4 3 3 0 nan nan nan nan nan nan nan
21 17 10 7 7 6 5 7 9 9 12 14 14 14 14 16 29 29 43 35 35 26 16 9 9 5 5 5 6 6 8 7 6 6 7 9 16 16 17 12 12 10 9 10 10 13 9 3 3 1 5 5 9 9 8 9 9 8 11 13 13 13 15 18 18 25 5 0 0 0 0 0 2 2 3 4 6 6 8 2 2 nan nan nan nan nan
22 17 13 8 8 6 5 8 10 10 11 9 13 13 11 24 61 61 45 26 26 17 12 7 7 3 4 4 5 5 8 6 5 5 3 6 10 10 12 10 10 6 5 4 4 4 10 15 15 0 1 2 4 4 4 4 4 8 16 20 20 20 14 23 23 13 0 0 1 1 1 2 3 3 7 11 15 15 15 9 9 4 nan nan nan nan
23 16 10 7 7 6 6 8 11 11 10 10 12 12 10 34 59 59 40 22 22 15 9 6 6 3 3 3 5 5 6 5 3 3 2 4 7 7 10 9 9 6 3 1 1 0 2 30 30 26 3 5 3 3 2 2 2 3 7 19 19 26 16 16 16 1 0 1 1 1 2 2 1 1 6 14 20 20 18 10 10 6 1 nan nan nan
26 13 12 9 9 10 7 11 13 13 10 9 9 9 14 39 54 54 37 16 16 11 6 5 5 4 2 2 5 5 6 5 4 4 3 3 5 5 7 6 6 5 3 1 1 0 0 2 2 33 80 47 23 23 4 4 4 18 23 30 30 20 10 7 7 2 1 1 1 1 2 2 2 2 7 11 17 17 14 8 8 5 3 1 1 0
CIN
nan nan nan nan nan nan nan nan nan nan nan nan nan nan nan nan nan nan nan nan nan nan nan nan nan nan nan nan nan nan nan -0 -0 -0 -0 -0 -0 -0 -0 -0 -0 -0 -0 -0 -0 -0 -0 -0 -0 -0 -0 -0 -0 -0 -0 -0 -0 -0 -0 -0 -0 -0 -0 -0 -0 -0 -0 -0 -0 -0 -0 -0 -0 -0 -0 -0 -0 -0 -0 -0 -0 -0 -0 -0 -0 -0
nan nan nan nan nan nan nan nan nan nan nan nan nan nan nan nan nan nan nan nan nan nan nan nan nan nan nan nan -0 -0 -0 -0 -0 -0 -0 -0 -0 -0 -0 -0 -0 -0 -0 -0 -0 -0 -0 -0 -0 -0 -0 -0 -0 -0 -0 -0 -0 -0 -0 -0 -0 -0 -0 -0 -0 -0 -0 -0 -0 -0 -0 -0 -0 -0 -0 -0 -0 -0 -0 -0 -0 -0 -0 -0 -0 -0
nan nan nan nan nan nan nan nan nan nan nan nan nan nan nan nan nan nan nan nan nan nan nan nan nan nan nan nan -0 -0 -0 -0 -0 -0 -0 -0 -0 -0 -0 -0 -0 -0 -0 -0 -0 -0 -0 -0 -0 -0 -0 -0 -0 -0 -0 -0 -0 -0 -0 -0 -0 -0 -0 -0 -0 -0 -0 -0 -0 -0 -0 -0 -0 -0 -0 -0 -0 -0 -0 -0 -0 -0 -0 -0 -0 -0
-0 nan nan nan nan nan nan nan nan nan -0 -0 -0 -0 -0 -0 -0 -0 -0 nan nan nan -0 nan nan nan nan -0 -0 -0 -0 -0 -0 -0 -0 -0 -0 -0 -0 -0 -0 -0 -0 -0 -0 -0 -0 -0 -0 -0 -0 -0 -0 -0 -0 -0 -0 -0 -0 -0 -0 -0 -0 -0 -0 -0 -0 -0 -0 -0 -0 -0 -0 -0 -0 -0 -0 -0 -0 -0 -0 -0 -0 -0 -0 -0
-0 nan -0 -0 -0 -0 -0 -0 -0 -0 -0 -0 -0 -0 -0 -0 -0 -0 -0 -0 -0 -0 -0 -0 -0 nan -0 -0 -0 -0 -0 -0 -0 -0 -0 -0 -0 -0 -0 -0 -0 -0 -0 -0 -0 -0 -0 -0 -0 -0 -0 -0 -0 -0 -0 -0 -0 -0 -0 -0 -0 -0 -0 -0 -0 -0 -0 -0 -0 -0 -0 -0 -0 -0 -0 -0 -0 -0 -0 -0 -0 -0 -0 -0 -0 -0
-0 -0 -0 -0 -0 -0 -0 -0 -0 -0 -0 -0 -0 -0 -0 -0 -0 -0 -0 -0 -0 -0 -0 -0 -0 -0 -0 -0 -0 -0 -0 -0 -0 -0 -0 -0 -0 -0 -0 -0 -0 -0 -0 -0 -0 -0 -0 -0 -0 -0 -0 -0 -0 -0 -0 -0 -0 -0 -0 -0 -0 -0 -0 -0 -0 -0 -0 -0 -0 -0 -0 -0 -0 -0 -0 -0 -0 -0 -0 -0 -0 -0 -0 -0 -0 -0
-0 -0 -0 -0 -0 -0 -0 -0 -0 -0 -0 -0 -0 -0 -0 -0 -0 -0 -0 -0 -0 -0 -0 -0 -0 -0 -0 -0 -0 -0 -0 -0 -0 -0 -0 -0 -0 -0 -0 -0 -0 -0 -0 -0 -0 -0 -0 -0 -0 -0 -0 -0 -0 -0 -0 -0 -0 -0 -0 -0 -0 -0 -0 -0 -0 -0 -0 -0 -0 -0 -0 -0 -0 -0 -0 -0 -0 -0 -0 -0 -0 -0 -0 -0 -0 -0
-0 -0 -0 -0 -0 -0 -0 -0 -0 -0 -0 -0 -0 -0 -0 -0 -0 -0 -0 -0 -0 -0 -0 -0 -0 -0 -0 -0 -0 -0 -0 -0 -0 -0 -0 -0 -0 -0 -0 -0 -0 -0 -0 -0 -0 -0 -0 -0 -0 -0 -0 -0 -0 -0 -0 -0 -0 -0 -0 -0 -0 -0 -0 -0 -0 -0 -0 -0 -0 -0 -0 -0 -0 -0 -0 -0 -0 -0 -0 -0 -0 -0 -0 -0 -0 -0
-0 -0 -0 -0 -0 -0 -0 -0 -0 -0 -0 -0 -0 -0 -0 -0 -0 -0 -0 -0 -0 -0 -0 -0 -0 -0 -0 -0 -0 -0 -0 -0 -0 -0 -0 -0 -0 -0 -0 -0 -0 -0 -0 -0 -0 -0 -0 -0 -0 -0 -0 -0 -0 -0 -0 -0 -0 -0 -0 -0 -0 -0 -0 -0 -0 -0 -0 -0 -0 -0 -0 -0 -0 -0 -0 -0 -0 -0 -0 -0 -0 -0 -0 -0 -0 -0
-0 -0 -0 -0 -0 -0 -0 -0 -0 -0 -0 -0 -0 -0 -0 -0 -0 -0 -0 -0 -0 -0 -0 -0 -0 -0 -0 -0 -0 -0 -0 -0 -0 -0 -0 -0 -0 -0 -0 -0 -0 -0 -0 -0 -0 -0 -0 -0 -0 -0 -0 -0 -0 -0 -0 -0 -0 -0 -0 -0 -0 -0 -0 -0 -0 -0 -0 -0 -0 -0 -0 -0 -0 -0 -0 -0 -0 -0 -0 -0 -0 -0 -0 -0 -0 -0
-0 -0 -0 -0 -0 -0 -2 -0 -0 -0 -0 -0 -0 -0 -0 -0 -0 -0 -0 -0 -0 -0 -0 -0 -0 -0 -0 -0 -0 -0 -0 -0 -0 -0 -0 -0 -0 -0 -0 -0 -0 -0 -0 -0 -0 -0 -0 -0 -0 -0 -0 -0 -0 -0 -0 -0 -0 -0 -0 -0 -0 -0 -0 -0 -0 -0 -0 -0 -0 -0 -0 -0 -0 -0 -0 -0 -0 -0 -0 -0 -0 -0 -0 -0 -0 -0
-0 -0 -0 -5 -5 -3 -1 -0 -1 -1 -2 -0 -0 -0 -0 -0 -0 -0 -0 -0 -0 -0 -0 -0 -0 -0 -0 -0 -0 -0 -0 -0 -0 -0 -0 -0 -0 -0 -0 -0 -0 -0 -0 -0 -0 -0 -0 -0 -0 -0 -0 -0 -0 -0 -0 -0 -0 -0 -0 -0 -0 -0 -0 -0 -0 -0 -0 -0 -0 -0 -0 -0 -0 -0 -0 -0 -0 -0 -0 -0 -0 -0 -0 -0 -0 -0
-0 -3 -7 -2 -2 -0 -0 -0 -0 -0 -4 -1 -0 -0 -0 -0 -0 -0 -1 -2 -2 -0 -0 -0 -0 -0 -0 -0 -0 -0 -0 -0 -0 -0 -0 -0 -0 -0 -0 -0 -0 -0 -0 -0 -0 -28 -22 -0 -0 -0 -0 -0 -0 -0 -0 -0 -0 -0 -0 -0 -0 -0 -0 -0 -0 -0 -0 -0 -0 -0 -0 -0 -0 -0 -0 -0 -0 -0 -0 -0 -0 -0 -0 -0 -0 -0
-0 -3 -1 -0 -0 -0 -0 -0 -0 -0 -4 -0 -0 -0 -0 -0 -1 -1 -5 -1 -1 -0 -0 -0 -0 -0 -0 -0 -0 -0 -0 -0 -0 -0 -0 -0 -0 -0 -0 -0 -0 -0 -0 -0 -0 nan -43 -39 -39 -39 -21 -15 -0 -0 -0 -0 -0 -0 -0 -0 -0 -0 -0 -0 -0 -0 -0 -0 -0 -0 -0 -0 -0 -0 -0 -0 -0 -0 -0 -0 -0 -0 -0 -0 -0 -0
-2 -1 -1 -0 -0 -0 -0 -0 -0 -0 -0 -0 -0 -0 -0 -0 -5 -5 -1 -0 -0 -0 -0 -0 -0 -0 -0 -0 -0 -0 -0 -0 -0 -0 -0 -0 -0 -0 -0 -0 -0 -0 -0 -0 -0 nan -42 -44 -44 nan -53 -28 -19 -19 -15 -14 -14 nan -0 -0 -0 -0 -0 -0 -0 -0 -0 -0 -0 -0 -0 -0 -0 -0 -0 -0 -0 -0 -0 -0 -0 -0 -0 -0 -0 -0
-0 -0 -0 -0 -0 -0 -0 -0 -0 -0 -0 -0 -0 -0 -0 -4 -2 -2 -0 -0 -0 -0 -0 -0 -0 -0 -0 -0 -0 -0 -0 -0 -0 -0 -0 -0 -0 -0 -0 -0 -0 -0 -0 -0 -0 -0 -0 -0 -0 -41 -43 -31 -29 -29 -28 -24 -24 -31 -0 -0 -0 -0 -0 -0 -0 -0 -0 -0 -0 -0 -0 -0 -0 -0 -0 -0 -0 -0 -0 -0 -0 -0 -0 -0 -0 -0
-0 -0 -0 -0 -0 -0 -1 -0 -0 -0 -0 -0 -0 -0 -1 -1 -0 -0 -0 -0 -0 -0 -0 -1 -1 -0 -0 -0 -0 -0 -0 -0 -0 -0 -0 -0 -0 -0 -0 -0 -0 -0 -0 -0 -0 -0 -0 -0 -0 -0 -27 -0 -22 -22 -23 -28 -28 -30 -0 -0 -0 -0 -0 -0 -0 -0 -0 -0 -0 -0 -0 -0 -0 -0 -0 -0 -0 -0 -0 -0 -0 -0 -0 -0 -0 -0
-1 -1 -2 -2 -2 -1 -2 -1 -1 -1 -0 -0 -1 -1 -2 -1 -0 -0 -0 -0 -0 -0 -0 -2 -2 -2 -1 -0 -0 -0 -0 -0 -0 -0 -0 -0 -0 -0 -0 -0 -0 -0 -0 -0 -0 -0 -0 -0 -0 -0 -0 -0 -0 -0 -0 -0 -0 -0 -0 -0 -0 -0 -0 -0 -0 -0 -0 -0 -0 -0 -0 -0 -0 -0 -0 -0 -0 -0 -0 -0 -0 -0 -0 -0 -0 -0
-0 -0 -2 -2 -2 -1 -1 -0 -1 -1 -2 -2 -5 -5 -3 -1 -0 -0 -0 -0 -0 -0 -0 -3 -3 -1 -1 -0 -0 -0 -0 -0 -0 -0 -0 -0 -0 -0 -0 -0 -0 -0 -0 -0 -0 -0 -0 -0 -0 -0 -0 -0 -0 -0 -0 -0 -0 -0 -0 -0 -0 -0 -0 -0 -0 -0 -0 -0 -0 -0 -0 -0 -0 -0 -0 -0 -0 -0 -0 -0 -0 -0 -0 -0 -0 -0
-1 -1 -1 -1 -1 -0 -2 -0 -0 -0 -1 -3 -3 -3 -1 -0 -0 -0 -0 -0 -0 -0 -0 -1 -1 -0 -0 -0 -0 -0 -0 -0 -0 -0 -0 -0 -0 -0 -0 -0 -0 nan nan -0 -0 -0 -0 -0 -0 -0 -5 -3 -0 -0 -0 -0 -0 -0 -0 -0 -0 -0 -0 -0 -0 -0 -0 -0 -0 -0 -0 -0 -0 -0 -0 -0 -0 -0 -0 -0 -0 -0 -0 -0 -0 -0
-0 -0 -0 -0 -0 -0 -0 -0 -0 -0 -0 -3 -3 -3 -1 -1 -0 -0 -0 -0 -0 -0 -0 -0 -0 -0 -0 -0 -0 -0 -0 -0 -0 -0 -0 -0 -0 -0 -0 nan nan nan nan nan nan nan -0 -0 -0 -0 -0 -6 -4 -4 -0 -0 -0 -0 -0 -0 -0 -0 -0 -0 -0 -0 -0 -0 -0 -0 -0 -0 -0 -0 -0 -0 -0 -0 -0 -0 -0 -0 -0 -0 -0 -0
-1 -1 -0 -0 -0 -0 -0 -0 -0 -0 -0 -2 -2 -2 -1 -1 -0 -0 -0 -0 -0 -0 -0 -0 -0 -0 -0 -0 -0 -0 -0 -1 -3 -3 -0 -0 -0 -0 -0 -0 -0 -0 nan nan nan nan -0 -0 -0 -0 -0 -0 -3 -3 -0 -0 -0 -0 -0 -0 -0 -0 -0 -0 -0 -0 -0 -0 -0 -0 -0 -0 -0 -0 -0 -0 -0 -0 -0 -0 -0 -0 -0 -0 -0 -0
-1 -1 -0 -0 -0 -0 -2 -0 -0 -0 -0 -1 -1 -1 -1 -0 -0 -0 -0 -0 -0 -0 -0 -0 -0 -0 -0 -0 -0 -0 -0 -1 -0 -0 -0 -0 -0 -0 -0 -0 -0 -0 -0 -0 -0 -0 -0 -0 -0 -0 -0 -0 -1 -1 -0 -0 -0 -0 -0 -0 -0 -0 -0 -0 -0 -0 -0 -0 -0 -0 -0 -0 -0 -0 -0 -0 -0 -0 -0 -0 -0 -0 -0 -0 -0 -0
-0 -4 -0 -0 -0 -4 -3 -1 -1 -1 -0 -0 -0 -0 -0 -0 -0 -0 -0 -0 -0 -0 -0 -0 -0 -0 -0 -0 -0 -0 -0 -0 -0 -0 -0 -0 -0 -0 -0 -0 -0 -0 -0 -0 -0 -0 -0 -0 -0 -0 -0 -0 -0 -0 -0 -0 -0 -0 -0 -0 -0 -0 -0 -0 -0 -0 -0 -0 -0 -0 -0 -0 -0 -0 -0 -0 -0 -0 -0 -0 -0 -0 -0 -0 -0 -0
-1 -0 -2 -1 -1 -3 -4 -3 -1 -1 -0 -0 -0 -0 -0 -0 -0 -0 -0 -0 -0 -0 -0 -0 -0 -0 -0 -0 -0 -0 -0 -0 -0 -0 -0 -0 -0 -0 -0 -0 -0 -0 -0 -0 -0 -0 -0 -0 -0 -0 -0 -0 -0 -0 -0 -0 -0 -0 -0 -0 -0 -0 -0 -0 -0 -0 -0 -0 -0 -0 -0 -0 -0 -0 -0 -0 -0 -0 -0 -0 -0 -0 -0 -0 -0 -0
-0 -0 -0 -0 -0 -0 -0 -0 -0 -0 -0 -0 -0 -0 -0 -0 -0 -0 -0 -0 -0 -0 -0 -0 -0 -0 -0 -0 -0 -0 -0 -0 -0 -0 -0 -0 -0 -0 -0 -0 -0 -0 -0 -0 -0 -0 -0 -0 -0 -0 -0 -0 -0 -0 -0 -0 -0 -0 -0 -0 -0 -0 -0 -0 -0 -0 -0 -0 -0 -0 -0 -0 -0 -0 -0 -0 -0 -0 -0 -0 -0 -0 -0 -0 -0 -0
-0 -0 -0 -0 -0 -0 -0 -0 -0 -0 -0 -0 -0 -0 -0 -0 -0 -0 -0 -0 -0 -0 -0 -0 -0 -0 -0 -0 -0 -0 -0 -0 -0 -0 -0 -0 -0 -0 -0 -0 -0 -0 -0 -0 -0 -0 -0 -0 -0 -0 -0 -0 -0 -0 -0 -0 -0 -0 -0 -0 -0 -0 -0 -0 -0 -0 -0 -0 -0 -0 -0 -0 -0 -0 -0 -0 -0 -0 -0 -0 -0 -0 -0 -0 -0 -0
-0 -0 -0 -0 -0 -0 -0 -0 -0 -0 -0 -0 -0 -0 -0 -0 -0 -0 -0 -0 -0 -0 -0 -0 -0 -0 -0 -0 -0 -0 -0 -0 -0 -0 -0 -0 -0 -0 -0 -0 -0 -0 -0 -0 -0 -0 -0 -0 -0 -0 -0 -0 -0 -0 -0 -0 -0 -2 -0 -0 -0 -0 -0 -0 -0 -0 -0 -0 -0 -0 -0 -0 -0 -0 -0 -0 -0 -0 -0 -0 -0 -0 -0 -0 -0 -0
-0 -0 -0 -0 -0 -0 -0 -0 -0 -0 -0 -0 -0 -0 -0 -0 -0 -0 -0 -0 -0 -0 -0 -0 -0 -0 -0 -0 -0 -0 -0 -0 -0 -0 -0 -0 -0 -0 -0 -0 -0 -0 -0 -0 -0 -0 -0 -0 -0 -0 -0 -0 -0 -0 -0 -0 -0 -0 -0 -0 -0 -0 -0 -0 -0 -0 -0 -0 -0 -0 -0 -0 -0 -0 -0 -0 -0 -0 -0 -0 -0 -0 -0 -0 -0 -0
-0 -0 -0 -0 -0 -0 -0 -0 -0 -0 -0 -0 -0 -0 -0 -0 -0 -0 -0 -0 -0 -0 -0 -0 -0 -0 -0 -0 -0 -0 -0 -0 -0 -0 -0 -0 -0 -0 -0 -0 -0 -0 -0 -0 -0 -0 -0 -0 -0 -0 -0 -0 -0 -0 -0 -0 -0 -0 -0 -0 -0 -0 -0 -0 -0 -0 -0 -0 -0 -0 -0 -0 -0 -0 -0 -0 -0 -0 -0 -0 -0 -0 -0 -0 -0 -0
-0 -0 -0 -0 -0 -0 -0 -0 -3 -3 -0 -0 -0 -0 -0 -0 -0 -0 -0 -0 -0 -0 -0 -0 -0 -0 -0 -0 -0 -0 -0 -0 -0 -0 -0 -0 -0 -0 -0 -0 -0 -0 -0 -0 -0 -0 -0 -0 -0 -0 -0 -0 -0 -0 -0 -0 -0 -0 -0 -0 -0 -0 -0 -0 -0 -0 -0 -0 -1 -1 -1 -0 -0 -0 -0 -0 -0 -0 -0 -0 -0 -0 -0 -0 -0 -0
-0 -0 -0 -0 -0 -0 -0 -0 -0 -0 -0 -0 -0 -0 -0 -0 -0 -0 -0 -0 -0 -0 -0 -0 -0 -0 -0 -0 -0 -0 -0 -0 -0 -0 -0 -0 -0 -0 -0 -0 -0 -0 -0 -0 -0 -0 -0 -0 -0 -0 -0 -0 -0 -0 -0 -0 -0 -0 -0 -0 -0 -0 -0 -0 -0 -0 -0 -0 -0 -0 -0 -0 -0 -0 -0 -0 -0 -0 -0 -0 -0 -0 -0 -0 -0 -0
-0 -0 -0 -0 -0 -0 -0 -0 -0 -0 -0 -0 -0 -0 -0 -0 -0 -0 -0 -0 -0 -0 -0 -0 -0 -0 -0 -0 -0 -0 -0 -0 -0 -0 -0 -0 -0 -0 -0 -0 -0 -0 -0 -0 -0 -0 -0 -0 -0 -0 -0 -0 -0 -0 -0 -0 -0 -0 -0 -0 -0 -0 -0 -0 -0 -0 -0 -0 -0 -0 -0 -0 -0 -0 -0 -0 -0 -0 -0 -0 -0 -0 -0 -0 -0 -0
-0 -0 -0 -0 -0 -0 -0 -0 -0 -0 -0 -0 -0 -0 -0 -0 -0 -0 -0 -0 -0 -0 -0 -0 -0 -0 -0 -0 -0 -0 -0 -0 -0 -0 -0 -0 -0 -0 -0 -0 -0 -0 -0 -0 -0 -0 -0 -0 -0 -0 -0 -0 -0 -0 -0 -0 -0 -0 -0 -0 -0 -0 -0 -0 -0 -0 -0 -0 -0 -0 -0 -0 -0 -0 -0 -0 -0 -0 -0 -0 -0 -0 -0 -0 -0 -0
-0 -0 -0 -0 -0 -0 -0 -0 -0 -0 -0 -0 -0 -0 -0 -0 -0 -0 -0 -0 -0 -0 -0 -0 -0 -0 -0 -0 -0 -0 -0 -0 -0 -0 -0 -0 -0 -0 -0 -0 -0 -0 -0 -0 -0 -0 -0 -0 -0 -0 -0 -0 -0 -0 -0 -0 -0 -0 -0 -0 -0 -0 -0 -0 -0 -0 -0 -0 -0 -0 -0 -0 -0 -0 -0 -0 -0 -0 -0 -0 -0 -0 -0 -0 -0 -0
-0 -0 -0 -0 -0 -0 -0 -0 -0 -0 -0 -0 -0 -0 -0 -0 -0 -0 -0 -0 -0 -0 -0 -0 -0 -0 -0 -0 -0 -0 -0 -0 -0 -0 -0 -0 -0 -0 -0 -0 -0 -0 -0 -0 -0 -0 -0 -0 -0 -0 -0 -0 -0 -0 -0 -0 -0 -0 -0 -0 -0 -0 -0 -0 -0 -0 -0 -0 -0 -0 -0 -0 -0 -0 -0 -0 -0 -0 -0 -0 -0 -1 -0 -0 -0 -0
-0 -0 -0 -0 -0 -0 -0 -0 -0 -0 -0 -0 -0 -0 -0 -0 -0 -0 -0 -1 -1 -0 -0 -0 -0 -0 -0 -0 -0 -0 -0 -0 -0 -0 -0 -0 -0 -0 -0 -0 -0 -0 -0 -0 -0 -0 -0 -0 -0 -0 -0 -0 -0 -0 -0 -0 -0 -0 -0 -0 -0 -0 -0 -0 -0 -0 -0 -0 -0 -0 -0 -0 -0 -0 -0 -0 -0 -0 -0 -1 -1 -1 -1 -1 -1 -0
-0 -0 -0 -0 -0 -0 -0 -0 -0 -0 -0 -0 -0 -0 -0 -0 -0 -0 -0 -0 -0 -1 -0 -0 -0 -0 -0 -0 -1 -1 -1 -0 -0 -0 -0 -0 -0 -0 -0 -0 -0 -0 -0 -0 -0 -0 -0 -0 -0 -0 -0 -0 -0 -0 -0 -0 -0 -0 -0 -0 -0 -0 -0 -0 -0 -0 -0 -0 -0 -0 -0 -0 -0 -0 -0 -0 -0 -0 -0 -0 -0 -0 -0 -1 -1 -1
-0 -0 -0 -0 -0 -0 -0 -0 -0 -0 -0 -0 -0 -0 -0 -0 -0 -0 -0 -0 -0 -0 -0 -0 -0 -0 -4 -4 -0 -0 -0 -0 -0 -0 -1 -1 -0 -0 -0 -0 -0 -0 -0 -0 -0 -0 -0 -0 -0 -0 -0 -0 -0 -0 -0 -0 -0 -0 -0 -0 -0 -0 -0 -0 -0 -0 -0 -0 -0 -0 -0 -0 -0 -0 -0 -0 -0 -0 -0 -0 -0 -0 -0 -0 -0 -0
-0 -0 -0 -0 -0 -0 -0 -0 -0 -0 -0 -0 -0 -0 -0 -0 -0 -0 -0 -0 -0 -0 -0 -0 -0 -0 -0 -0 -0 -0 -0 -3 -0 -0 -2 -3 -1 -1 -0 -0 -0 -0 -0 -0 -0 -0 -0 -0 -0 -0 -0 -0 -0 -0 -0 -0 -0 -0 -0 -0 -0 -0 -0 -0 -0 -0 -0 -0 -0 -0 -0 -0 -0 -0 -0 -0 -0 -0 -0 -0 -0 -0 -0 -0 -0 -0
-0 -0 -0 -0 -0 -0 -0 -0 -0 -0 -0 -0 -0 -0 -0 -0 -0 -0 -0 -0 -0 -0 -0 -0 -0 -0 -0 -0 -0 -0 -0 -2 -0 -0 -3 -2 -1 -1 -0 -0 -0 -0 -0 -0 -0 -0 -0 -0 -0 -0 -0 -0 -0 -0 -0 -0 -0 -0 -0 -0 -0 -0 -0 -0 -0 -0 -0 -0 -0 -0 -0 -0 -0 -0 -0 -0 -0 -0 -0 -0 -0 -0 -0 -0 -0 -0
-0 -0 -0 -0 -0 -0 -0 -0 -0 -0 -0 -0 -0 -0 -0 -0 -0 -0 -0 -0 -0 -0 -0 -0 -0 -0 -0 -0 -0 -0 -0 -0 -0 -0 -2 -4 -2 -2 -0 -0 -0 -0 -0 -0 -0 -0 -0 -0 -0 -0 -0 -0 -0 -0 -0 -0 -0 -0 -0 -0 -0 -0 -0 -0 -0 -0 -0 -0 -0 -0 -0 -0 -0 -0 -0 -0 -0 -0 -0 -0 -0 -0 -0 -0 -0 -0
-0 -0 -0 -0 -0 -0 -0 -0 -0 -0 -0 -0 -0 -0 -0 -0 -0 -0 -0 -0 -0 -0 -0 -0 -0 -0 -0 -0 -0 -0 -0 -4 -0 -0 -0 -6 -2 -2 -0 -0 -0 -0 -0 -0 -0 -0 -0 -0 -0 -0 -0 -0 -0 -0 -0 -0 -0 -0 -0 -0 -0 -0 -0 -0 -0 -0 -0 -0 -1 -1 -0 -0 -0 -0 -0 -0 -0 -0 nan nan nan -0 -0 -0 -0 -0
-0 -0 -0 -0 -0 -0 -0 -0 -0 -0 -0 -0 -0 -0 -0 -0 -0 -0 -0 -0 -0 -0 -0 -0 -0 -0 -0 -0 -0 -0 -0 -0 -0 -0 -0 -0 -1 -1 -0 -0 -0 -0 -0 -0 -0 -0 -0 -0 -0 -0 -0 -0 -0 -0 -0 -0 -0 -0 -0 -0 -0 -0 -0 -0 -0 -0 -0 -0 -0 -0 -0 -0 -0 -0 -0 -0 -0 -0 nan nan nan nan nan -0 -0 -0
-0 -0 -0 -0 -0 -0 -0 -0 -0 -0 -0 -0 -0 -0 -0 -0 -0 -0 -0 -0 -0 -0 -0 -0 -0 -0 -0 -0 -0 -0 -0 -0 -0 -0 -0 -0 -0 -0 -0 -0 -0 -0 -0 -0 -0 -0 -0 -0 -0 -0 -0 -0 -0 -0 -0 -0 -0 -0 -0 -0 -0 -0 -0 -0 -0 -0 -0 -0 -0 -0 -0 -0 -0 -0 -0 -0 -0 -0 nan nan nan nan nan nan nan -0
-0 -0 -0 -0 -0 -0 -0 -0 -0 -0 -0 -0 -0 -0 -0 -0 -0 -0 -0 -0 -0 -0 -0 -0 -0 -0 -0 -0 -0 -0 -0 -0 -0 -0 -0 -0 -0 -0 -0 -0 -0 -0 -0 -0 -0 -0 -0 -0 -0 -0 -0 -0 -0 -0 -0 -0 -0 -0 -0 -0 -0 -0 -0 -0 -0 -0 -0 -0 -0 -0 -0 -0 -0 -0 -0 -0 -0 -0 -0 nan nan nan nan nan nan -0
-0 -0 -0 -0 -0 -0 -0 -0 -0 -0 -0 -0 -0 -0 -0 -0 -0 -0 -0 -0 -0 -0 -0 -0 -0 -0 -0 -0 -0 -0 -0 -0 -0 -0 -0 -0 -0 -0 -0 -0 -0 -0 -0 -0 -0 -0 -1 -0 -0 -0 -0 -0 -0 -0 -0 -0 -0 -0 -0 -0 -0 -0 -0 -0 -0 -0 -0 -0 -0 -0 -0 -0 -0 -0 -0 -0 -0 -0 -0 nan nan nan nan nan nan nan
-0 -0 -0 -0 -0 -0 -0 -0 -0 -0 -0 -0 -0 -0 -0 -0 -0 -0 -0 -0 -0 -0 -0 -0 -0 -0 -0 -0 -0 -0 -0 -0 -0 -0 -0 -0 -0 -0 -0 -0 -0 -0 -0 -0 -0 -0 -2 -5 -5 -1 -0 -0 -0 -0 -0 -0 -0 -0 -0 -0 -0 -0 -0 -0 -0 -0 -0 -0 -0 -0 -0 -0 -0 -0 -0 -0 -0 -0 -0 -0 -0 nan nan nan nan nan
-0 -0 -0 -0 -0 -0 -0 -0 -0 -0 -0 -0 -0 -0 -0 -0 -0 -0 -0 -0 -0 -0 -0 -0 -0 -0 -0 -0 -0 -0 -0 -0 -0 -0 -0 -0 -0 -0 -0 -0 -0 -0 -0 -0 -0 -0 -0 -8 -8 -6 -0 -0 -0 -0 -0 -0 -0 -0 -0 -0 -0 -0 -0 -0 -0 -0 -0 -0 -0 -0 -0 -0 -0 -0 -0 -0 -0 -0 -0 -0 -0 -0 nan nan nan nan
-0 -0 -0 -0 -0 -0 -0 -0 -0 -0 -0 -0 -0 -0 -0 -0 -0 -0 -0 -0 -0 -0 -0 -0 -0 -0 -0 -0 -0 -0 -0 -0 -0 -0 -0 -0 -0 -0 -0 -0 -0 -0 -0 -0 -0 -0 -0 -1 -1 -5 -1 -0 -0 -0 -0 -0 -0 -0 -0 -0 -0 -0 -0 -0 -0 -0 -0 -0 -0 -0 -0 -0 -0 -0 -0 -0 -0 -0 -0 -0 -0 -0 -0 nan nan nan
-0 -0 -0 -0 -0 -0 -0 -0 -0 -0 -0 -0 -0 -0 -0 -0 -0 -0 -0 -0 -0 -0 -0 -0 -0 -0 -0 -0 -0 -0 -0 -0 -0 -0 -0 -0 -0 -0 -0 -0 -0 -0 -0 -0 -0 -0 -0 -0 -0 -0 -0 -0 -0 -0 -0 -0 -0 -0 -0 -0 -0 -0 -0 -0 -0 -0 -0 -0 -0 -0 -0 -0 -0 -0 -0 -0 -0 -0 -0 -0 -0 -0 -0 -0 -0 -0
Wind_Speed
7 8 8 10 11 10 9 12 12 12 11 10 10 10 10 10 10 11 13 13 13 12 12 12 12 13 14 16 18 19 20 21 21 21 21 21 21 21 21 21 20 20 20 20 20 19 19 19 19 19 19 19 19 19 19 19 20 20 20 20 20 20 19 19 19 19 19 19 19 19 19 19 19 20 20 20 20 20 20 20 20 19 18 16 15 15
8 8 8 10 11 11 9 11 12 12 12 11 11 10 10 11 11 10 10 11 12 12 11 11 12 13 14 15 17 19 20 20 21 21 21 21 21 21 21 21 21 21 20 20 20 20 20 20 20 19 19 19 19 19 19 19 19 19 19 19 19 19 19 19 18 18 19 19 19 19 19 19 20 20 20 20 20 20 19 20 20 19 19 17 16 16
8 8 7 9 10 10 9 11 11 12 12 12 12 12 13 13 12 10 9 10 10 10 10 10 11 12 13 14 16 18 19 20 20 21 21 21 21 21 22 21 21 21 21 20 20 20 20 20 19 19 19 19 19 19 18 19 19 19 19 19 19 19 19 18 18 18 18 19 19 19 19 20 20 20 20 20 19 19 19 19 19 19 19 19 18 17
8 8 8 8 8 10 10 10 11 11 11 11 12 13 14 13 11 10 9 10 10 10 10 11 11 12 11 12 13 16 18 20 20 21 21 22 22 22 22 22 21 21 21 20 20 20 19 19 19 19 19 18 18 18 18 18 18 19 19 19 19 19 19 19 19 19 19 19 19 19 20 20 20 20 20 20 20 19 19 19 19 20 20 20 19 19
8 8 8 8 8 9 10 10 10 10 10 11 11 12 12 11 10 9 9 10 10 10 10 10 11 11 10 10 12 15 18 20 21 21 22 22 22 22 22 21 21 21 20 20 19 19 19 19 18 18 18 18 18 18 18 18 18 18 18 19 19 19 19 18 19 19 19 19 19 19 19 19 19 19 19 19 19 19 19 19 19 20 20 20 20 20
8 8 8 7 7 7 8 9 9 9 9 9 10 10 10 10 9 9 9 9 9 9 9 9 10 10 11 11 12 15 18 19 21 21 21 21 21 21 21 20 20 19 19 19 19 18 18 18 18 18 18 18 18 18 18 18 18 18 18 18 18 18 18 18 18 18 18 18 19 19 18 18 18 18 18 19 19 19 19 19 19 19 20 20 20 20
8 8 7 7 7 7 7 8 8 9 8 8 8 8 9 9 9 9 9 9 9 9 9 9 9 10 11 12 13 15 16 17 19 19 20 19 19 19 19 18 18 18 18 18 18 18 18 18 18 18 18 17 17 17 18 18 18 18 18 17 17 17 17 17 17 18 18 18 18 18 17 17 17 17 17 18 18 18 18 18 18 19 19 19 20 20
9 8 8 8 8 7 7 7 8 8 8 8 8 8 8 8 8 9 10 10 10 9 9 9 9 9 9 11 12 12 12 13 14 14 15 16 16 16 16 16 17 17 17 18 18 18 18 18 18 18 18 18 18 18 18 18 18 18 17 17 17 17 17 17 17 17 17 17 17 17 17 17 17 17 17 17 17 17 17 17 18 18 19 19 19 19
10 10 9 9 8 9 8 8 7 8 8 8 8 8 8 8 8 8 9 9 9 9 9 9 9 9 9 9 10 10 11 11 11 11 12 12 12 13 14 15 16 16 17 17 18 18 18 18 18 18 18 18 18 18 18 18 18 17 17 17 17 16 16 16 16 16 16 16 16 16 16 16 16 16 16 16 17 17 17 17 17 18 18 18 19 19
10 11 10 9 8 8 8 8 8 8 9 9 8 8 8 9 9 9 9 9 9 8 8 9 9 9 9 9 9 9 10 11 12 13 13 13 13 14 14 14 14 14 16 17 17 18 18 18 18 18 18 18 18 18 18 18 17 17 17 17 17 16 16 16 16 16 16 16 16 16 16 16 16 16 16 16 16 16 16 16 17 17 17 17 18 18
10 10 9 9 8 8 7 7 7 8 9 9 9 8 8 8 9 9 10 9 9 8 8 8 8 8 8 8 8 8 9 9 10 11 12 13 14 14 14 13 13 14 15 15 16 16 17 17 17 17 17 18 17 17 17 17 17 17 16 16 16 16 16 16 16 15 15 15 15 16 16 16 16 16 16 16 16 16 16 16 16 16 16 17 17 18
9 8 8 8 7 7 6 7 7 7 7 7 7 8 8 7 8 8 9 9 9 9 9 8 8 8 8 9 8 8 8 8 8 8 8 9 10 10 10 10 10 11 11 12 13 13 14 15 15 15 16 16 16 16 16 16 16 16 16 16 16 16 16 15 15 15 15 15 15 15 16 16 16 16 16 16 16 16 16 16 16 16 16 16 17 17
8 7 6 7 7 6 6 6 6 5 5 6 7 7 8 7 7 8 8 9 9 9 8 8 8 8 9 9 8 8 8 8 8 7 7 7 7 7 7 7 7 7 7 8 8 9 11 12 13 13 14 14 15 15 15 15 15 15 15 15 15 16 16 16 15 15 15 15 16 16 16 16 16 16 16 16 16 16 16 16 16 16 16 16 16 17
7 6 5 6 6 6 6 7 7 7 6 6 7 8 8 8 8 8 7 8 8 7 7 8 8 8 8 8 8 8 8 8 7 7 6 6 6 6 7 7 7 6 6 6 6 7 9 9 10 10 12 13 13 14 13 14 14 14 15 15 15 15 16 16 16 16 16 16 16 16 16 16 16 16 16 16 16 16 16 16 16 16 16 16 16 17
7 7 8 8 8 8 8 8 8 8 7 7 7 8 8 8 8 7 7 8 7 6 7 8 9 8 7 7 7 8 8 8 7 7 7 6 6 6 7 7 7 7 6 6 7 7 8 8 8 8 9 11 12 12 12 13 13 14 15 15 15 16 16 16 16 16 16 16 16 16 16 16 16 16 16 16 16 16 16 16 16 16 16 16 17 17
8 8 9 9 9 8 8 8 8 8 8 7 7 8 8 8 7 7 7 7 6 6 6 7 8 8 6 6 7 7 8 7 7 6 7 6 6 6 6 7 7 7 7 7 7 7 7 7 7 8 8 10 12 13 13 13 14 15 15 15 16 16 16 16 16 16 16 16 16 16 16 16 16 16 16 16 16 16 16 17 17 17 17 17 17 17
7 7 7 7 8 7 7 7 7 7 7 7 7 7 7 7 7 7 7 6 6 5 5 6 6 6 5 5 6 6 6 6 6 6 6 6 6 6 7 7 7 8 8 7 7 7 7 7 7 7 8 10 12 13 14 14 15 15 16 16 16 16 16 16 16 16 16 16 16 16 16 16 16 16 16 16 16 16 17 17 17 17 17 17 17 18
7 7 8 9 8 8 7 7 7 7 7 7 7 6 6 6 7 7 8 7 6 6 6 5 5 5 5 5 4 4 6 6 5 5 6 6 6 6 7 7 7 8 8 8 8 7 7 7 7 7 8 11 13 14 14 15 15 16 16 16 17 17 16 16 16 16 16 16 16 16 16 16 16 16 16 16 16 16 17 17 17 17 18 18 18 18
9 9 9 9 9 8 8 8 8 8 7 7 7 7 8 8 8 9 9 8 7 7 7 6 6 5 6 5 4 4 5 5 5 6 7 7 7 7 7 7 8 8 9 9 9 8 7 7 8 9 11 13 14 15 15 15 15 16 16 17 17 17 17 17 16 16 16 16 16 16 16 16 16 16 16 16 16 16 17 17 17 18 18 18 18 18
9 8 8 8 8 9 8 8 8 9 8 8 8 8 9 9 9 9 9 8 8 7 6 6 5 4 3 3 3 3 4 5 6 6 7 8 8 8 8 8 9 9 9 9 9 8 8 8 8 9 11 13 13 14 14 14 15 15 16 17 17 17 17 17 17 16 16 16 16 16 16 16 16 16 16 16 16 16 17 17 17 18 18 18 18 18
9 9 9 9 9 9 8 9 9 10 11 10 9 8 8 9 9 8 8 7 7 6 5 4 3 3 3 3 4 5 6 6 6 5 5 6 7 7 7 8 9 10 10 10 9 9 9 9 8 9 10 11 12 13 13 13 14 15 16 17 17 18 18 17 17 16 16 16 16 16 16 16 16 16 16 16 16 16 17 17 17 17 18 18 18 18
9 10 11 11 11 10 9 10 11 12 12 11 10 8 7 8 8 7 7 6 5 5 4 4 4 4 5 6 6 7 7 6 5 5 5 6 7 7 7 7 8 9 10 9 9 9 9 9 9 9 11 13 13 13 13 13 14 15 16 17 17 18 18 18 17 17 16 16 16 16 16 16 16 16 15 16 16 16 16 17 17 17 17 17 18 18
11 11 12 12 11 10 10 10 11 11 11 10 9 8 6 7 7 7 5 4 4 4 5 5 6 6 6 6 7 7 6 6 5 5 5 6 7 7 6 7 8 9 9 9 9 9 9 9 9 10 12 13 14 14 13 14 14 15 16 17 18 18 18 18 18 17 17 16 16 16 16 16 15 15 15 15 16 16 16 17 17 17 17 17 17 18
12 12 12 11 11 10 9 9 9 9 8 8 7 7 7 7 7 6 5 4 5 5 5 6 7 7 6 7 7 6 6 6 5 5 4 6 6 6 6 6 7 8 9 8 9 9 9 9 9 9 10 12 14 14 15 15 15 15 16 17 18 18 19 18 18 18 17 17 16 16 16 15 15 15 15 15 15 16 16 16 17 17 17 17 17 17
12 12 11 11 12 12 11 11 10 10 10 9 8 7 7 8 7 7 6 5 5 5 5 6 7 7 6 6 6 6 6 5 5 5 5 5 6 7 6 6 7 8 9 8 8 9 9 9 9 9 9 11 13 15 16 16 16 16 16 17 17 18 19 19 18 18 17 17 16 16 16 15 15 15 15 15 15 15 15 16 16 16 16 17 17 17
16 16 16 17 19 21 21 21 20 18 17 13 10 7 7 7 7 6 6 6 5 5 6 6 7 7 6 6 6 6 5 5 5 5 5 5 6 7 7 6 7 8 9 8 8 8 9 9 9 9 9 10 12 15 17 18 17 17 16 16 17 18 18 18 18 18 17 17 16 16 15 15 15 15 15 15 15 15 15 15 16 16 16 16 16 16
23 24 24 24 24 24 23 22 21 20 19 16 12 9 6 5 6 6 6 5 5 5 6 7 7 7 7 7 6 6 6 5 5 5 6 6 7 7 7 6 7 7 8 8 7 8 9 9 9 9 9 10 11 13 17 17 17 16 15 15 16 17 17 18 18 17 17 17 16 16 15 15 15 14 14 14 14 14 14 15 15 15 15 14 14 13
22 22 21 20 19 18 18 17 17 16 15 14 13 11 7 5 5 6 6 5 5 6 7 7 8 7 7 7 6 6 7 5 5 5 6 6 6 6 6 6 6 6 7 6 7 8 9 9 9 9 9 10 10 11 13 14 14 13 12 13 13 14 15 16 16 16 16 16 16 15 15 14 14 14 14 14 14 14 14 14 14 14 13 12 10 9
16 15 15 14 14 14 14 13 13 12 12 12 12 10 7 4 4 5 5 5 5 6 7 7 8 7 7 7 7 7 7 6 6 6 6 5 5 5 5 5 5 5 5 5 6 6 7 7 8 8 9 9 9 8 8 9 9 9 9 10 11 12 13 14 14 15 15 15 15 15 14 14 14 14 13 13 13 13 13 14 13 12 10 9 8 8
9 9 10 10 11 11 10 9 9 10 11 11 11 10 7 5 5 5 4 4 5 6 7 8 8 7 7 7 7 6 6 5 5 4 4 4 4 4 4 5 5 5 5 5 5 5 5 5 6 7 8 8 7 6 6 7 7 7 7 9 9 10 11 12 13 13 14 14 14 14 14 14 14 14 13 13 13 13 13 14 12 10 8 7 7 7
6 7 7 8 8 8 7 7 7 7 8 9 9 8 7 5 5 4 4 4 5 6 7 7 7 7 7 6 5 5 4 4 4 4 4 3 4 4 5 5 6 6 5 4 4 4 4 4 4 5 6 6 6 7 7 7 7 7 7 7 7 8 10 11 12 12 13 13 14 14 15 14 14 14 13 13 13 13 13 13 12 10 7 7 7 7
6 7 7 7 7 7 6 6 6 6 6 6 6 6 6 5 5 5 4 5 5 6 6 7 7 7 7 6 5 5 4 4 5 5 5 4 4 4 4 5 5 6 5 5 5 5 5 4 4 4 5 6 6 7 7 8 8 7 7 7 7 8 9 10 11 11 11 12 13 14 14 14 14 14 13 13 13 13 13 13 12 10 8 7 7 7
8 7 7 7 7 7 6 6 6 5 5 5 4 5 5 5 5 5 5 5 5 5 6 6 6 6 6 6 6 6 5 5 5 6 6 4 4 3 4 5 5 6 5 5 6 6 5 5 5 5 6 6 6 6 7 7 7 7 8 8 7 7 8 9 9 9 9 10 10 11 12 13 13 13 13 13 13 13 13 13 12 11 9 7 7 7
8 8 8 8 8 7 7 7 6 6 5 5 4 5 5 5 5 5 5 5 5 5 5 6 6 6 6 6 6 6 5 5 6 6 6 4 4 4 4 5 6 6 6 5 5 6 5 6 6 6 5 5 5 5 6 6 7 7 7 7 7 7 7 7 7 7 8 8 8 8 8 9 10 10 11 11 12 12 12 12 12 11 10 8 7 6
8 8 8 8 8 7 7 7 6 6 5 5 5 5 5 5 5 5 5 5 5 5 5 5 5 5 6 5 5 6 5 5 6 6 6 5 4 4 4 5 5 6 6 5 5 5 5 6 7 7 6 5 5 5 5 6 6 6 7 7 7 7 7 7 7 7 7 7 6 6 6 6 7 7 8 9 9 9 10 10 10 10 10 9 8 7
8 8 8 8 7 7 7 6 6 5 5 5 5 5 5 5 5 5 5 5 5 5 5 5 5 5 6 6 6 6 6 6 6 7 6 6 5 4 4 5 5 6 6 6 5 5 5 6 7 8 8 7 6 5 5 5 6 6 6 7 7 7 7 7 7 7 6 6 6 6 5 5 5 5 6 7 7 8 8 8 9 9 10 10 9 9
8 8 8 7 7 6 6 5 5 5 4 4 5 5 6 6 6 6 6 5 5 5 6 6 6 6 7 7 7 7 7 7 7 7 7 6 6 5 5 5 6 6 6 6 6 6 6 6 7 7 7 7 6 5 5 5 5 6 6 6 7 7 7 7 7 7 7 7 6 6 5 5 5 5 5 6 6 6 7 8 8 9 9 9 10 10
8 7 7 6 6 5 5 5 5 4 5 5 5 6 6 6 6 6 6 6 6 6 6 6 6 7 8 9 9 8 8 9 9 9 9 8 7 6 6 6 6 7 7 7 7 7 7 7 7 7 6 6 6 7 6 6 6 6 6 6 7 7 7 7 7 7 7 7 6 6 6 6 5 5 5 5 4 4 4 5 6 7 8 8 9 10
7 7 6 6 5 5 5 5 5 5 5 6 6 6 6 7 7 7 6 6 6 6 6 6 6 6 7 8 9 10 10 10 11 11 10 9 8 7 7 7 7 7 7 7 7 7 7 7 7 6 6 6 6 7 7 6 6 7 7 6 6 7 7 7 6 6 6 6 6 6 6 6 5 5 5 4 3 3 4 4 4 5 5 5 6 8
7 7 6 5 5 4 5 5 5 6 6 6 6 6 6 6 6 5 5 5 5 6 6 7 6 6 6 7 8 9 9 9 9 10 9 8 7 7 7 7 7 7 7 7 7 7 7 7 7 7 7 6 6 6 6 6 6 7 7 6 5 5 6 6 6 6 6 6 6 6 6 6 6 6 6 4 4 3 4 3 3 4 4 4 4 5
7 6 5 5 4 5 5 5 6 6 6 6 5 5 5 5 5 4 4 4 5 5 5 5 5 5 6 6 7 8 8 8 9 9 8 8 8 8 7 7 6 6 6 7 7 7 8 8 8 8 8 7 7 7 7 7 8 8 8 6 6 6 7 7 7 7 6 6 5 5 6 6 6 6 6 5 4 4 3 3 3 3 3 3 4 4
7 6 5 4 4 5 5 6 6 6 6 5 5 5 4 4 4 4 4 4 4 4 4 4 4 5 5 5 6 6 7 7 7 8 8 8 8 8 8 7 7 6 6 7 7 7 8 8 8 8 8 7 7 6 6 7 8 8 7 7 7 7 7 7 7 6 5 5 4 5 5 5 5 5 6 5 4 3 2 3 3 4 3 3 3 4
5 5 4 5 5 5 6 6 6 5 5 5 4 4 4 4 4 4 4 4 4 5 4 4 4 5 5 5 5 5 5 5 6 7 7 7 7 8 8 8 8 7 6 7 7 7 8 8 8 8 8 7 7 7 7 7 7 7 6 6 6 6 4 5 5 5 4 3 3 3 4 4 4 4 4 4 3 2 2 2 3 4 4 4 4 3
5 5 5 5 5 5 5 5 5 4 4 4 4 4 4 4 5 5 5 4 5 5 4 4 4 5 5 5 5 5 5 5 6 7 7 7 8 8 8 9 8 8 7 7 7 7 7 8 8 7 7 7 7 7 7 7 6 6 6 6 6 6 5 5 5 6 5 4 3 3 4 4 4 3 3 3 3 2 2 3 3 4 4 4 3 3
5 4 4 4 4 4 5 5 5 4 4 4 4 4 4 5 5 5 5 5 5 5 4 4 4 4 4 5 5 5 5 5 5 5 6 7 8 9 8 8 8 8 7 7 7 7 7 7 7 7 6 6 7 7 7 7 7 6 6 6 6 7 7 6 6 6 5 4 3 3 3 3 3 3 3 3 3 3 3 3 3 3 3 3 3 3
4 4 4 4 4 4 5 5 5 5 5 5 5 4 4 5 5 5 5 5 5 4 4 4 4 4 4 5 5 5 5 5 5 5 4 5 5 6 6 6 6 6 6 7 7 7 7 7 7 7 6 6 6 7 7 7 6 6 6 6 6 6 6 6 6 5 5 4 3 3 3 3 2 3 3 3 3 3 3 3 2 2 2 2 2 3
4 4 4 4 4 4 5 5 5 5 5 5 5 4 4 5 5 5 5 5 4 4 4 4 4 5 5 5 5 5 5 5 5 5 5 5 5 5 5 5 6 7 7 7 8 8 8 8 7 7 6 6 6 6 6 6 6 6 6 6 5 5 5 5 5 4 3 3 3 3 2 2 2 3 3 2 2 2 2 2 1 1 1 2 2 3
5 4 4 4 4 5 5 5 5 5 5 5 5 5 5 5 5 5 4 4 4 4 4 4 4 5 6 6 6 6 6 6 6 5 5 5 5 5 5 5 6 6 7 8 9 9 8 8 8 7 7 6 5 5 6 6 6 6 6 5 5 5 5 5 4 3 2 2 2 2 2 2 2 2 2 2 2 2 2 1 1 0 1 1 2 3
4 4 4 4 5 5 5 5 5 5 5 5 5 5 5 6 6 5 4 3 3 3 4 4 5 5 6 6 6 6 6 6 6 5 5 5 5 5 5 6 6 6 6 7 8 8 7 7 7 7 6 6 5 6 6 6 6 6 5 5 5 5 4 4 3 2 2 2 2 2 2 2 3 3 3 2 2 2 1 1 0 0 1 1 2 2
4 4 4 4 5 5 5 5 5 5 5 5 5 5 5 6 5 4 3 3 3 3 4 5 5 5 6 6 6 6 6 6 5 5 5 5 5 6 6 6 6 6 6 6 6 6 6 4 4 5 6 6 6 6 6 6 6 5 5 4 4 3 3 3 3 2 2 1 1 2 2 2 2 2 3 3 3 2 2 1 1 1 1 1 2 2
4 4 4 5 5 5 5 5 5 5 5 5 5 5 6 6 5 4 2 3 3 4 4 5 5 5 6 6 6 6 6 6 6 6 6 5 6 6 6 6 6 6 6 5 5 5 5 4 3 1 3 4 4 4 4 5 5 4 4 3 2 2 2 2 2 2 1 1 1 1 2 2 2 2 2 3 3 2 2 2 2 2 2 2 2 3
Wind_Direction
291 294 296 296 295 293 290 291 291 290 290 290 291 291 291 290 289 288 288 288 288 288 288 287 286 287 287 287 288 288 289 290 291 291 291 292 292 291 291 291 291 291 290 289 288 287 286 285 284 284 283 282 282 281 281 281 280 279 279 278 278 278 279 279 280 280 280 279 278 277 276 275 274 275 275 276 277 278 278 279 279 279 279 278 276 275
292 293 293 294 294 292 290 290 290 289 290 290 291 292 292 292 291 290 289 288 287 287 286 286 286 286 287 287 288 288 289 290 290 291 291 291 291 291 291 291 291 290 290 289 289 288 287 286 286 285 285 285 284 283 283 282 282 282 281 280 280 279 279 279 280 280 279 279 278 278 277 276 275 275 275 276 277 278 280 281 281 281 280 278 275 273
294 293 292 293 293 292 291 292 291 289 289 290 291 291 292 291 291 290 289 287 286 285 284 285 286 287 288 288 289 289 289 289 290 290 290 290 290 290 290 290 290 290 290 289 289 288 288 287 287 287 286 286 285 285 284 284 283 282 282 281 280 279 278 278 277 277 277 276 276 276 276 275 275 275 276 276 277 278 278 279 280 280 280 278 276 273
291 292 294 295 293 291 290 292 292 290 289 289 288 289 289 289 288 287 286 286 286 286 286 287 289 289 289 289 289 288 289 289 289 289 289 289 289 289 289 289 289 289 289 289 289 288 288 288 287 287 286 286 285 285 284 283 283 282 281 280 279 278 276 275 274 274 273 273 273 273 273 274 274 275 275 276 277 277 278 279 280 281 281 280 279 277
288 289 293 293 291 289 289 289 290 289 288 286 286 287 287 286 286 286 286 286 286 287 288 289 289 289 288 288 288 288 288 288 288 288 288 287 287 287 287 287 287 288 288 288 288 288 287 287 287 286 286 285 284 284 283 282 281 280 280 279 278 277 276 275 274 273 272 272 272 272 273 273 274 274 275 276 276 277 277 278 279 279 279 279 279 278
287 288 290 288 287 287 288 287 286 286 286 284 283 283 283 283 283 284 285 285 286 287 288 288 287 287 286 286 287 288 288 287 287 286 286 285 285 284 284 285 285 286 286 286 286 286 287 286 286 285 285 284 283 283 282 281 280 280 279 278 278 277 277 276 275 274 274 274 274 274 274 274 275 275 276 276 276 277 277 277 277 277 277 278 278 278
287 286 286 284 282 282 282 281 281 282 282 282 282 281 280 281 281 282 284 285 287 287 287 286 286 285 285 285 286 287 287 287 286 285 285 284 283 283 283 284 285 286 287 287 287 287 287 287 286 286 285 284 284 283 283 282 281 281 280 280 279 279 278 278 277 277 276 276 276 276 276 276 276 276 276 276 277 276 277 276 276 276 276 276 277 277
286 284 281 281 281 280 277 276 277 279 280 281 282 283 284 284 284 284 285 286 286 287 286 285 284 283 283 285 286 287 288 288 288 287 286 285 284 285 285 286 287 288 289 289 289 289 289 289 288 288 287 286 285 285 284 284 283 283 283 282 282 281 281 280 280 279 279 279 279 279 278 278 278 278 277 277 277 277 277 277 277 277 277 277 278 278
282 283 282 281 282 283 282 278 278 279 281 281 282 284 287 288 288 288 288 288 287 286 285 284 283 282 282 285 287 288 288 287 287 288 288 288 289 288 288 289 289 290 290 290 289 289 290 289 289 288 287 286 286 285 285 284 284 284 284 284 284 283 283 283 282 282 281 281 280 280 279 279 278 278 277 278 278 278 278 278 278 279 279 279 280 280
279 282 285 283 282 282 283 284 284 283 282 281 281 281 283 286 288 289 287 286 285 284 282 280 280 282 284 286 288 289 289 286 285 284 285 285 286 286 285 285 286 286 286 286 286 287 287 287 287 286 286 285 285 284 283 283 283 283 283 283 283 283 283 282 282 282 281 280 280 279 278 277 277 276 276 276 276 276 276 277 278 278 279 280 280 280
280 281 283 283 281 279 277 280 283 284 283 281 278 275 272 276 280 283 284 283 283 281 278 277 279 284 291 293 294 293 291 288 286 284 283 284 283 282 281 280 279 279 281 282 283 283 284 284 284 284 284 283 282 282 282 281 281 281 281 281 281 280 280 280 280 280 279 279 278 278 277 276 275 274 274 273 273 273 273 274 274 275 276 277 278 278
281 282 282 281 280 278 274 274 276 278 280 279 277 274 270 269 272 277 281 282 283 281 279 280 284 291 297 299 298 295 290 286 285 286 286 287 286 285 282 280 278 278 279 280 281 281 281 282 282 282 281 281 280 280 279 279 278 278 278 278 278 278 278 278 278 278 278 278 277 277 277 276 275 274 274 273 272 271 271 271 271 272 273 273 274 275
278 277 277 274 272 270 270 273 274 274 271 270 273 276 279 279 280 282 283 282 281 280 282 287 292 296 298 297 294 291 286 283 284 285 287 289 290 290 289 287 285 283 282 282 282 282 283 283 282 281 280 279 278 277 276 276 276 276 277 277 278 278 278 277 277 277 277 277 277 277 277 276 276 275 274 273 272 272 271 271 270 270 271 271 272 273
276 273 269 268 268 269 271 273 274 273 269 268 272 277 282 285 286 285 282 276 275 279 287 293 297 298 296 291 287 284 283 283 284 284 283 283 285 288 290 291 290 289 288 287 286 285 286 285 283 281 279 277 276 276 274 274 275 275 277 278 278 278 278 278 277 277 277 276 276 276 276 275 275 274 274 273 273 272 271 271 270 270 270 270 271 272
278 277 275 274 274 276 277 278 278 278 278 277 278 279 282 282 281 278 273 274 279 287 295 296 296 294 290 286 283 282 281 282 281 281 281 282 284 288 292 294 294 294 292 288 285 283 283 281 279 277 277 275 275 275 275 276 277 277 278 278 279 279 278 278 277 277 276 276 275 274 274 273 273 272 272 272 272 271 271 270 270 269 269 270 270 271
277 276 275 277 279 282 284 285 285 285 286 285 284 284 284 283 280 275 273 280 288 294 296 294 291 288 283 280 280 281 282 285 288 291 293 293 295 297 300 300 299 297 294 290 286 283 281 279 277 275 274 273 272 272 272 274 275 276 277 277 278 278 278 277 277 276 275 275 274 273 272 271 270 270 271 271 271 271 270 270 269 269 269 269 269 270
280 282 285 288 290 291 291 289 288 289 293 296 297 296 293 290 286 283 280 283 286 289 287 286 286 286 285 282 281 286 298 306 310 311 308 304 304 306 309 305 302 299 297 292 288 284 281 278 276 274 273 272 271 270 270 271 272 274 275 276 277 277 277 277 276 275 274 273 272 271 270 270 270 270 270 271 271 271 271 271 270 269 269 269 268 268
282 285 288 289 289 289 290 292 296 299 303 305 304 300 293 287 283 281 278 277 277 279 280 278 278 279 284 286 297 321 340 331 322 313 308 305 306 308 309 305 301 298 296 293 289 285 280 277 275 274 274 272 271 270 270 270 272 273 275 276 277 278 277 277 276 275 274 273 272 271 270 270 270 271 271 272 272 272 272 272 271 270 270 269 268 268
272 272 272 273 275 277 281 285 290 294 297 297 295 292 286 280 277 275 273 273 272 272 273 271 269 270 276 287 313 345 350 327 314 308 306 305 305 306 306 302 299 295 294 293 292 290 286 282 277 274 272 271 270 269 269 270 271 273 275 277 278 278 278 277 276 275 274 273 272 272 271 271 272 272 273 273 273 273 273 273 272 272 271 270 270 270
271 270 269 272 275 278 279 279 281 284 286 287 287 286 284 282 278 275 272 272 271 270 268 265 267 273 287 304 316 320 315 312 310 307 304 301 299 299 302 299 297 294 292 291 291 292 291 288 282 276 272 270 269 268 268 269 271 273 275 277 278 278 278 277 276 275 274 273 273 272 272 272 273 273 273 273 273 273 273 272 272 272 271 271 271 271
277 278 278 280 283 284 282 281 281 282 283 283 282 279 277 278 277 276 275 278 282 285 287 288 293 300 309 304 300 299 304 307 305 301 296 292 291 292 295 294 292 290 288 288 289 290 292 290 288 285 282 278 275 272 270 270 272 274 276 277 278 278 278 277 276 275 274 273 272 272 273 273 273 273 273 273 273 273 273 272 272 272 271 271 271 272
280 281 281 281 281 280 281 281 280 279 277 276 274 272 272 276 280 285 292 298 302 305 306 302 298 295 291 290 291 294 298 294 290 287 287 285 284 285 288 288 286 285 285 287 289 291 292 292 291 291 292 288 284 280 277 275 274 275 276 277 277 277 277 276 275 274 272 271 271 271 272 273 273 274 274 274 273 273 273 272 272 272 271 271 271 271
275 277 279 278 277 276 276 276 275 273 272 269 267 267 273 279 285 292 301 303 300 295 289 284 282 282 282 284 286 286 285 279 276 276 279 280 282 285 287 285 284 284 285 289 293 294 294 292 291 291 290 290 289 287 284 280 278 276 276 276 276 276 276 275 274 272 271 270 269 270 271 272 273 274 274 274 273 273 273 273 272 272 272 272 272 272
270 271 271 271 270 268 267 268 270 271 273 272 273 276 281 285 286 285 281 279 279 281 281 283 283 283 283 283 283 281 277 272 269 268 272 276 280 283 286 287 286 286 287 291 294 294 293 290 288 288 289 292 293 292 289 285 281 277 275 275 275 275 275 274 273 272 270 269 269 269 270 272 273 274 274 274 273 273 273 273 273 273 273 272 272 273
268 267 266 266 266 266 268 271 275 279 284 287 290 295 299 300 297 292 287 284 284 285 287 288 288 287 287 287 286 283 281 277 272 269 271 276 280 283 288 292 292 291 290 292 293 293 292 291 291 292 294 296 295 293 290 286 282 277 273 272 272 273 273 273 272 271 270 269 269 270 271 273 274 274 274 273 273 273 273 273 273 273 273 274 274 274
270 270 271 272 274 275 277 280 283 288 294 299 305 312 317 316 312 306 301 297 295 294 293 289 287 286 287 287 286 286 289 289 285 281 282 285 288 290 293 294 293 290 290 292 293 293 293 294 295 296 296 293 290 288 286 283 280 276 272 271 270 271 272 272 272 271 271 271 271 272 274 274 275 274 274 273 273 273 273 274 274 274 274 275 275 274
275 277 278 280 281 282 284 287 290 295 301 308 313 318 323 322 314 305 297 297 297 295 291 288 287 287 288 288 289 293 300 301 298 294 292 290 289 289 291 293 292 291 292 293 295 295 294 293 292 291 289 287 285 282 280 280 279 277 273 272 271 271 272 273 273 273 273 273 274 275 276 277 276 275 274 273 273 273 273 274 275 275 275 275 275 273
282 284 287 288 288 289 289 292 295 299 302 303 304 306 309 307 299 293 292 298 299 296 290 288 289 291 293 295 298 301 304 302 298 294 292 287 283 283 289 294 295 296 296 296 296 295 293 291 291 289 287 284 282 281 281 285 287 287 286 283 279 277 277 276 276 276 277 278 278 279 279 279 278 276 274 274 273 273 273 274 275 275 275 274 272 270
285 287 289 290 290 290 291 292 293 293 292 291 292 293 292 280 274 277 285 295 296 292 287 287 290 293 296 299 300 300 297 293 291 292 294 288 282 282 292 296 298 298 300 299 297 294 289 287 287 286 284 284 285 290 298 308 311 311 312 303 296 291 287 285 283 283 283 283 283 283 282 280 279 277 275 273 273 272 272 273 273 274 273 270 269 268
279 281 285 288 289 288 286 285 283 282 282 285 287 287 281 269 262 266 276 284 285 283 284 286 289 292 296 298 298 294 288 286 292 301 311 298 290 290 298 298 299 301 302 301 296 290 283 280 279 280 284 293 304 315 323 326 325 323 322 313 306 300 294 292 290 289 288 287 286 285 284 281 278 275 273 272 271 270 270 271 271 271 269 269 269 269
281 288 293 294 291 287 281 276 274 275 278 282 283 282 276 267 263 263 268 271 274 277 282 285 288 291 294 295 292 289 286 291 305 317 322 303 293 293 300 297 296 295 294 292 290 288 286 282 280 285 294 305 311 315 315 313 312 310 307 304 299 295 293 292 291 290 288 286 285 284 282 279 276 273 270 268 267 267 268 268 268 268 268 268 270 271
299 300 298 296 292 288 283 278 276 276 278 278 276 273 267 263 262 263 265 267 271 275 280 283 286 287 287 284 280 280 284 293 304 311 311 298 291 290 293 291 290 290 289 287 287 289 294 296 298 300 302 303 303 303 303 303 303 302 301 298 295 292 292 291 290 287 284 282 281 280 278 276 273 270 267 265 264 264 265 265 265 265 265 267 268 269
304 300 297 296 293 290 285 282 280 280 279 277 274 269 265 262 261 263 266 269 273 276 279 281 282 282 280 276 274 273 277 284 293 299 301 296 290 288 290 289 291 293 295 291 289 289 293 296 299 300 298 296 295 295 295 295 296 297 298 297 296 295 295 294 292 287 283 281 278 276 276 274 271 268 265 262 261 261 262 262 263 263 264 265 267 269
300 298 296 294 293 290 287 285 284 283 281 276 272 268 266 265 265 267 270 273 275 276 276 277 278 279 279 277 274 273 275 279 288 295 301 297 293 290 291 290 291 292 294 291 288 287 286 288 292 294 294 292 291 290 291 292 293 293 294 295 295 296 297 295 292 288 286 284 282 280 278 276 273 270 265 263 261 260 260 261 261 261 262 263 266 269
296 295 293 292 291 290 290 290 289 287 284 279 274 272 271 273 276 277 279 280 279 277 274 273 273 275 276 277 277 277 278 282 291 298 303 299 295 291 290 287 286 287 287 286 285 285 284 287 290 292 294 294 293 292 290 291 292 292 292 293 293 293 294 292 290 288 288 288 287 287 286 285 282 278 273 269 266 264 264 262 261 261 260 261 263 266
295 294 292 290 290 290 291 292 291 290 289 288 286 285 285 286 287 288 288 286 284 281 278 273 270 268 268 271 274 278 282 287 293 297 298 294 290 285 282 281 281 282 283 283 284 285 287 288 290 291 294 295 295 295 293 293 294 293 292 292 292 291 292 292 291 290 289 287 286 285 285 285 286 284 281 273 270 269 267 264 262 260 258 259 260 261
292 290 288 288 289 290 291 291 291 293 294 295 296 295 295 294 294 293 290 287 285 282 279 274 269 264 262 265 269 275 281 286 289 289 286 283 278 275 274 276 278 279 279 282 284 286 287 288 289 290 290 290 292 295 297 298 297 294 292 291 291 291 291 291 290 289 287 284 281 278 277 277 276 275 272 269 267 264 263 262 259 257 256 256 257 258
288 286 285 287 289 290 290 290 293 296 299 299 298 297 298 297 295 292 289 284 279 275 272 270 267 264 259 260 262 266 270 273 275 276 274 271 269 267 269 273 276 276 277 279 282 285 286 286 287 287 286 286 288 291 295 297 296 294 292 291 290 289 288 286 284 284 284 283 281 279 277 276 273 269 263 259 254 251 253 253 252 251 250 251 252 253
284 284 286 289 291 293 295 297 299 301 300 298 297 297 297 293 289 285 282 279 274 269 266 267 267 265 259 257 259 262 265 267 268 268 266 263 262 263 266 271 275 278 279 279 278 278 278 278 279 281 283 285 288 290 292 292 293 292 293 291 289 285 283 284 285 287 289 289 288 287 286 286 283 279 271 259 248 243 247 249 249 246 245 247 249 251
285 286 289 293 297 300 302 301 301 300 298 297 295 293 291 286 282 278 274 273 271 269 268 268 269 270 270 269 269 268 267 266 264 263 260 256 255 257 263 268 273 278 280 278 275 272 270 270 272 273 275 279 282 286 287 286 287 289 291 292 290 288 290 294 296 297 294 290 290 291 293 295 296 293 287 275 259 247 247 252 251 248 246 251 255 257
284 286 290 296 300 301 299 297 297 296 294 292 289 286 283 283 283 282 279 276 275 275 273 272 272 273 274 274 274 273 271 266 263 261 258 255 254 256 261 264 268 272 274 273 271 269 268 269 271 272 273 275 277 279 280 280 282 284 287 287 289 292 295 296 295 293 290 291 293 295 298 299 299 296 290 280 267 255 251 257 258 256 251 252 258 263
281 286 294 299 300 299 296 295 293 291 288 285 282 281 283 285 287 287 286 286 286 284 283 282 282 282 282 279 278 277 276 273 272 270 267 262 259 260 263 265 267 268 268 268 268 268 268 269 271 273 274 275 276 276 276 278 279 280 280 282 287 291 292 289 288 289 294 299 303 304 301 298 294 290 286 281 274 264 256 258 259 259 257 255 256 259
291 299 304 302 299 296 296 294 290 286 281 280 281 283 285 285 284 284 286 288 288 288 286 288 291 294 297 297 296 294 290 287 285 284 283 278 274 273 274 274 274 272 271 271 271 271 271 271 271 272 273 274 274 274 276 278 279 280 279 282 286 290 290 288 290 294 298 297 294 291 289 287 286 284 284 283 281 272 254 251 251 251 252 255 257 260
304 304 302 299 296 295 293 289 285 282 281 283 283 284 284 281 281 282 284 283 285 287 292 299 305 307 306 306 306 306 304 300 296 293 290 287 285 282 280 280 280 280 278 277 277 278 279 275 273 272 273 273 273 273 274 278 281 283 283 283 283 282 281 288 293 294 290 283 277 276 280 284 285 284 279 272 262 249 237 237 237 237 238 243 251 259
293 292 292 291 291 290 286 285 283 284 284 283 282 281 281 281 281 282 281 282 285 292 303 314 317 314 309 308 308 307 305 302 297 291 286 283 281 279 279 280 283 284 284 280 277 276 278 278 279 279 280 276 274 273 274 277 280 282 283 282 280 278 276 279 283 285 287 290 293 297 302 302 296 284 269 253 240 229 222 226 230 233 233 236 245 258
278 280 283 285 285 284 283 284 285 285 282 280 279 278 279 279 279 279 279 283 290 301 314 321 319 313 308 307 306 304 301 300 298 296 294 292 290 289 288 288 290 290 287 281 277 273 272 273 276 279 281 276 272 270 270 273 275 278 279 279 277 275 274 275 278 284 297 308 316 321 326 314 293 270 256 245 232 219 210 218 229 243 253 261 271 277
272 275 280 284 286 287 287 287 286 284 281 281 281 281 280 278 276 276 278 286 297 309 319 319 316 310 307 305 304 304 303 304 306 309 311 311 312 311 310 306 304 301 295 288 281 274 267 264 265 267 271 272 272 272 271 271 272 273 275 275 275 274 274 278 286 299 325 332 331 328 326 299 275 263 260 254 238 218 199 198 214 249 287 297 301 300
271 275 282 287 289 289 288 287 284 282 282 284 285 285 283 282 282 283 286 297 305 311 315 316 315 312 308 306 305 305 305 308 311 314 316 317 317 318 319 317 312 307 302 296 290 281 270 258 251 250 256 264 270 276 278 277 276 276 276 277 277 277 279 285 299 325 355 346 336 325 307 288 282 282 281 271 253 230 206 187 182 204 313 316 312 309
273 277 283 286 287 287 285 284 282 281 281 284 286 287 288 288 288 290 296 303 308 311 314 317 316 313 310 307 306 306 306 308 310 313 316 318 320 322 322 321 318 315 311 306 301 293 282 260 241 231 233 244 257 268 275 278 279 280 280 280 280 281 285 296 318 351 9 353 334 315 296 295 300 305 303 294 283 271 253 242 245 298 342 329 316 308
275 276 280 283 284 284 284 284 283 281 282 284 287 289 290 287 286 287 293 301 308 313 317 318 316 313 310 308 307 308 310 312 314 316 319 322 325 326 325 325 325 323 320 317 314 310 304 286 246 218 212 222 238 257 271 276 279 280 279 280 285 295 303 317 341 3 5 349 331 311 297 296 297 298 299 299 299 297 296 298 306 325 353 339 318 305
276 275 277 279 281 282 283 283 282 281 281 283 286 288 286 283 282 285 296 308 315 317 316 315 313 311 309 308 308 311 315 317 317 318 322 326 327 328 327 328 328 328 327 326 325 323 321 321 315 262 200 205 223 251 278 290 296 299 297 306 320 331 329 339 355 7 359 349 328 307 293 289 289 292 296 299 303 305 308 316 329 345 358 344 327 314